Meteo pe oră la Bolshoe Belyakovo

Astăzi, 10 Mai, Luni

Timp Temperatura Precipitaţii Vânt Presiune Umiditate
00:00 +5°C° 0 mm 3 m/s 740 mmHg 69%
01:00 +5°C° 0 mm 3 m/s 740 mmHg 69%
02:00 +5°C° 0 mm 3 m/s 741 mmHg 68%
03:00 +5°C° 0 mm 3 m/s 741 mmHg 68%
04:00 +5°C° 0 mm 3 m/s 741 mmHg 68%
05:00 +5°C° 0 mm 3 m/s 741 mmHg 68%
06:00 +6°C° 0 mm 4 m/s 741 mmHg 67%
07:00 +7°C° 0 mm 4 m/s 741 mmHg 66%
08:00 +9°C° 0 mm 5 m/s 741 mmHg 64%
09:00 +10°C° 0 mm 5 m/s 741 mmHg 61%
10:00 +13°C° 0 mm 5 m/s 742 mmHg 58%
11:00 +15°C° 0 mm 5 m/s 742 mmHg 55%
12:00 +15°C° 0 mm 5 m/s 742 mmHg 54%
13:00 +16°C° 0 mm 5 m/s 741 mmHg 53%
14:00 +16°C° 0 mm 5 m/s 741 mmHg 52%
15:00 +16°C° 0 mm 5 m/s 741 mmHg 54%
16:00 +17°C° 0 mm 4 m/s 741 mmHg 57%
17:00 +17°C° 0 mm 4 m/s 741 mmHg 59%
18:00 +14°C° 0 mm 4 m/s 741 mmHg 65%
19:00 +12°C° 0 mm 3 m/s 741 mmHg 71%
20:00 +11°C° 0 mm 3 m/s 741 mmHg 76%
21:00 +10°C° 0 mm 3 m/s 741 mmHg 77%
22:00 +9°C° 0 mm 3 m/s 741 mmHg 78%
23:00 +8°C° 0 mm 3 m/s 741 mmHg 79%

Mâine, 11 Mai, Marţi

Timp Temperatura Precipitaţii Vânt Presiune Umiditate
00:00 +7°C° 0 mm 3 m/s 741 mmHg 79%
01:00 +7°C° 0 mm 3 m/s 741 mmHg 80%
02:00 +5°C° 0 mm 3 m/s 742 mmHg 80%
03:00 +5°C° 0 mm 3 m/s 741 mmHg 79%
04:00 +5°C° 0 mm 3 m/s 741 mmHg 78%
05:00 +4°C° 0 mm 3 m/s 741 mmHg 77%
06:00 +7°C° 0 mm 3 m/s 742 mmHg 72%
07:00 +8°C° 0 mm 4 m/s 742 mmHg 66%
08:00 +11°C° 0 mm 4 m/s 742 mmHg 61%
09:00 +12°C° 0 mm 4 m/s 742 mmHg 56%
10:00 +14°C° 0 mm 4 m/s 741 mmHg 52%
11:00 +15°C° 0 mm 5 m/s 741 mmHg 48%
12:00 +16°C° 0 mm 5 m/s 741 mmHg 46%
13:00 +16°C° 0 mm 5 m/s 741 mmHg 45%
14:00 +17°C° 0 mm 5 m/s 740 mmHg 43%
15:00 +18°C° 0 mm 4 m/s 740 mmHg 47%
16:00 +18°C° 0 mm 4 m/s 740 mmHg 51%
17:00 +18°C° 0 mm 4 m/s 740 mmHg 56%
18:00 +15°C° 0 mm 4 m/s 739 mmHg 62%
19:00 +13°C° 0 mm 4 m/s 739 mmHg 69%
20:00 +11°C° 0 mm 4 m/s 739 mmHg 76%
21:00 +11°C° 0 mm 4 m/s 739 mmHg 79%
22:00 +10°C° 0 mm 3 m/s 739 mmHg 83%
23:00 +10°C° 0 mm 3 m/s 739 mmHg 87%

Poimâine, 12 Mai, Miercuri

Timp Temperatura Precipitaţii Vânt Presiune Umiditate
00:00 +10°C° 0 mm 4 m/s 739 mmHg 89%
01:00 +10°C° 0 mm 4 m/s 738 mmHg 92%
02:00 +10°C° 0 mm 4 m/s 738 mmHg 94%
03:00 +10°C° 0 mm 4 m/s 738 mmHg 95%
04:00 +8°C° 0 mm 5 m/s 738 mmHg 95%
05:00 +8°C° 0 mm 5 m/s 738 mmHg 96%
06:00 +9°C° 0 mm 5 m/s 739 mmHg 88%
07:00 +9°C° 0 mm 6 m/s 739 mmHg 80%
08:00 +10°C° 0 mm 6 m/s 739 mmHg 72%
09:00 +11°C° 0 mm 6 m/s 739 mmHg 67%
10:00 +13°C° 0 mm 6 m/s 738 mmHg 63%
11:00 +14°C° 0 mm 6 m/s 738 mmHg 58%
12:00 +14°C° 0 mm 6 m/s 738 mmHg 56%
13:00 +15°C° 0 mm 6 m/s 738 mmHg 54%
14:00 +16°C° 0 mm 6 m/s 737 mmHg 52%
15:00 +15°C° 0 mm 5 m/s 737 mmHg 53%
16:00 +15°C° 0 mm 4 m/s 736 mmHg 55%
17:00 +16°C° 0 mm 3 m/s 736 mmHg 56%
18:00 +14°C° 0 mm 3 m/s 735 mmHg 63%
19:00 +13°C° 0 mm 2 m/s 734 mmHg 69%
20:00 +12°C° 0 mm 2 m/s 734 mmHg 75%
21:00 +10°C° 0.2 mm 2 m/s 733 mmHg 79%
22:00 +11°C° 0.2 mm 1 m/s 732 mmHg 83%
23:00 +10°C° 0.2 mm 1 m/s 732 mmHg 86%

13 Mai, Joi

Timp Temperatura Precipitaţii Vânt Presiune Umiditate
00:00 +9°C° 1.6 mm 2 m/s 731 mmHg 89%
01:00 +8°C° 1.6 mm 3 m/s 730 mmHg 92%
02:00 +8°C° 1.6 mm 3 m/s 730 mmHg 95%
03:00 +7°C° 2.8 mm 4 m/s 730 mmHg 96%
04:00 +7°C° 2.8 mm 4 m/s 730 mmHg 96%
05:00 +6°C° 2.8 mm 4 m/s 729 mmHg 97%
06:00 +7°C° 2.6 mm 4 m/s 730 mmHg 96%
07:00 +7°C° 2.6 mm 5 m/s 730 mmHg 96%
08:00 +7°C° 2.6 mm 5 m/s 730 mmHg 95%
09:00 +8°C° 0.8 mm 5 m/s 730 mmHg 92%
10:00 +8°C° 0.8 mm 6 m/s 730 mmHg 90%
11:00 +9°C° 0.8 mm 6 m/s 730 mmHg 87%
12:00 +10°C° 0.2 mm 6 m/s 730 mmHg 82%
13:00 +11°C° 0.2 mm 7 m/s 730 mmHg 77%
14:00 +11°C° 0.2 mm 7 m/s 730 mmHg 72%
15:00 +11°C° 0 mm 7 m/s 730 mmHg 74%
16:00 +11°C° 0 mm 6 m/s 730 mmHg 75%
17:00 +11°C° 0 mm 6 m/s 730 mmHg 76%
18:00 +11°C° 0 mm 6 m/s 730 mmHg 75%
19:00 +11°C° 0 mm 6 m/s 730 mmHg 74%
20:00 +11°C° 0 mm 6 m/s 730 mmHg 73%
21:00 +11°C° 0 mm 6 m/s 730 mmHg 75%
22:00 +10°C° 0 mm 5 m/s 730 mmHg 77%
23:00 +10°C° 0 mm 5 m/s 730 mmHg 79%

14 Mai, Vineri

Timp Temperatura Precipitaţii Vânt Presiune Umiditate
00:00 +11°C° 0 mm 4 m/s 730 mmHg 81%
01:00 +10°C° 0 mm 4 m/s 730 mmHg 84%
02:00 +10°C° 0 mm 4 m/s 730 mmHg 86%
03:00 +10°C° 0.4 mm 4 m/s 729 mmHg 89%
04:00 +10°C° 0.4 mm 4 m/s 729 mmHg 92%
05:00 +9°C° 0.4 mm 5 m/s 729 mmHg 95%
06:00 +10°C° 0.4 mm 4 m/s 728 mmHg 96%
07:00 +10°C° 0.4 mm 4 m/s 728 mmHg 97%
08:00 +10°C° 0.4 mm 4 m/s 728 mmHg 98%
09:00 +11°C° 0.2 mm 4 m/s 728 mmHg 94%
10:00 +12°C° 0.2 mm 4 m/s 728 mmHg 91%
11:00 +13°C° 0.2 mm 4 m/s 728 mmHg 88%
12:00 +13°C° 0.3 mm 4 m/s 728 mmHg 89%
13:00 +12°C° 0.3 mm 4 m/s 729 mmHg 90%
14:00 +12°C° 0.3 mm 4 m/s 729 mmHg 91%
15:00 +12°C° 0.2 mm 4 m/s 729 mmHg 91%
16:00 +12°C° 0.2 mm 4 m/s 729 mmHg 91%
17:00 +12°C° 0.2 mm 3 m/s 729 mmHg 92%
18:00 +12°C° 0 mm 3 m/s 729 mmHg 93%
19:00 +11°C° 0 mm 3 m/s 729 mmHg 95%
20:00 +12°C° 0 mm 2 m/s 729 mmHg 97%
21:00 +10°C° 0 mm 2 m/s 730 mmHg 97%
22:00 +10°C° 0 mm 2 m/s 730 mmHg 97%
23:00 +9°C° 0 mm 2 m/s 730 mmHg 97%

15 Mai, Sâmbătă

Timp Temperatura Precipitaţii Vânt Presiune Umiditate
00:00 +9°C° 0 mm 2 m/s 730 mmHg 96%
01:00 +9°C° 0 mm 1 m/s 730 mmHg 96%
02:00 +9°C° 0 mm 1 m/s 730 mmHg 96%
03:00 +9°C° 0 mm 1 m/s 730 mmHg 95%
04:00 +9°C° 0 mm 1 m/s 731 mmHg 95%
05:00 +9°C° 0 mm 1 m/s 731 mmHg 95%
06:00 +11°C° 0 mm 1 m/s 731 mmHg 91%
07:00 +13°C° 0 mm 1 m/s 731 mmHg 87%
08:00 +14°C° 0 mm 1 m/s 732 mmHg 83%
09:00 +15°C° 0.2 mm 1 m/s 732 mmHg 77%
10:00 +18°C° 0.2 mm 1 m/s 732 mmHg 72%
11:00 +19°C° 0.2 mm 1 m/s 732 mmHg 67%
12:00 +19°C° 1.1 mm 1 m/s 732 mmHg 67%
13:00 +19°C° 1.1 mm 1 m/s 732 mmHg 68%
14:00 +18°C° 1.1 mm 2 m/s 732 mmHg 68%
15:00 +18°C° 1.2 mm 2 m/s 732 mmHg 71%
16:00 +18°C° 1.2 mm 2 m/s 732 mmHg 73%
17:00 +17°C° 1.2 mm 2 m/s 732 mmHg 76%
18:00 +16°C° 0.8 mm 2 m/s 732 mmHg 80%
19:00 +15°C° 0.8 mm 2 m/s 731 mmHg 83%
20:00 +13°C° 0.8 mm 2 m/s 731 mmHg 87%
21:00 +13°C° 0 mm 2 m/s 731 mmHg 89%
22:00 +12°C° 0 mm 2 m/s 731 mmHg 90%
23:00 +10°C° 0 mm 2 m/s 732 mmHg 91%
Arată mai mult

Formular de consimțământ

Meteoprog și furnizorii noștri de servicii pot stoca și accesa date personale, precum cookies, identificatori de dispozitiv sau alte tehnologii similare pe dispozitivul dumneavoastră și procesa astfel de date pentru a personaliza conținutul și reclamele, dar și pentru a oferi caracteristici de social media și pentru a analiza traficul.

  • Stocarea și/sau accesarea informațiilor pe dispozitivul dumneavoastră

    Cookies, identificatori de dispozitiv sau alte informații pot fi stocate sau accesate pe dispozitiv în scopurile indicate mai sus.

  • Reclame și conținut personalizat, evaluarea reclamelor și a conținutului, informații despre audiențe și dezvoltarea produselor

    Reclamele și conținutul pot fi personalizate pe baza unui profil. Pot fi adăugate date suplimentare pentru a personaliza mai bine reclamele și conținutul. Performanța reclamelor și conținutului poate fi măsurată. Pot fi obținute informații despre utilizatorii care au văzut reclamele și conținutul. Aceste date pot fi utilizate pentru a dezvolta sau îmbunătăți experiența utilizatorilor, sistemele și software-ul.

Dând clic pe ‘Sunt de acord’, permiteți utilizarea cookie-urilor menționate, a identificatorilor de dispozitiv, balizelor web sau altor tehnologii similare. Setările pot fi modificate din browser-ul dispozitivului dumneavoastră.

În anumite scopuri, interesele legitime pot prima asupra consimțământului. Puteți citi mai multe informații în acest sens în Politica privind Confidențialitatea Datelor și Cookie.